Regional Weather Roundup
Issued by NWS New Orleans/Baton Rouge, LA

Home | Current Version | Previous Version | Text Only | Print | Product List | Glossary On
Versions: 1 2 3 4 5 6 7 8 9 10 11 12 13 14 15 16 17 18 19 20 21 22 23 24 25 26 27 28 29 30 31 32 33 34 35 36 37 38 39 40 41 42 43 44 45 46 47 48 49 50
286
ASUS44 KLIX 241413
RWRLIX
NEW ORLEANS REGIONAL WEATHER ROUNDUP
NATIONAL WEATHER SERVICE NEW ORLEANS LA
900 AM CDT MON APR 24 2017

NOTE: "FAIR" INDICATES FEW OR NO CLOUDS BELOW 12,000 FEET WITH NO
      SIGNIFICANT WEATHER AND/OR OBSTRUCTIONS TO VISIBILITY.
      SKY/WX - SKY CONDITION AND SIGNIFICANT WEATHER.
      TMP - AIR TEMPERATURE.     DP    - DEWPOINT TEMPERATURE.
      RH  - RELATIVE HUMIDITY.   PRES  - PRESSURE.
      HI  - HEAT INDEX.          WCI   - WIND CHILL INDEX.

*  THESE STATIONS ARE NOT NWS OR FAA STATIONS AND ARE NOT UNDER
   NWS QUALITY CONTROL.

LAZ038-040-048-061>063-065>067-069-241500-
SOUTHEAST LOUISIANA

CITY           SKY/WX    TMP DP  RH WIND       PRES   REMARKS
N.O. INTL ARPT MOSUNNY   63  52  67 W12       29.94R
N.O. LAKEFRONT MOSUNNY   67  59  75 W17       29.94R
N.O. DOWNTOWN*   N/A     66  50  56 W8          N/A
RESERVE*       NOT AVBL
SLIDELL        SUNNY     62  51  67 VRB5      29.92S
BATON ROUGE    SUNNY     62  53  72 W9        29.96S
BOOTHVILLE     SUNNY     64  55  72 W13G21    29.93R
BELLE CHASSE   SUNNY     62  53  72 NW10G17   29.93R
BOGALUSA*      NOT AVBL
GALLIANO*      SUNNY     63  52  65 W13G20    29.94S
NEW ROADS*       N/A     60  53  78 NW7       29.97S
GONZALES*        N/A     63  54  71 W5        29.95S
HAMMOND*       SUNNY     61  50  67 W7        29.95R
HOUMA*         SUNNY    N/A N/A N/A MISG      29.96R
PORT FOURCHON* SUNNY     66  50  55 W14G20    29.94S

$$

MSZ070-080>082-241500-
SOUTHERN MISSISSIPPI

CITY           SKY/WX    TMP DP  RH WIND       PRES   REMARKS
MCCOMB         SUNNY     60  49  66 NW10      29.94R
GULFPORT       SUNNY     63  51  65 NW9       29.89S
BILOXI         SUNNY     62  50  64 NW10      29.89S
PASCAGOULA     SUNNY     61  48  62 NW7G16    29.89R
STENNIS ARPT*  SUNNY     59  46  63 NW12      29.92R

$$

COASTAL OBSERVATIONS
LAKE AND NEARSHORE STATIONS

STATION/POSITION TIME  TEMP    WIND        PRES    WAVE
                       AIR SEA DIR/SP/G            HT/PER
                 (UTC) (F)     (DEG/KT/KT) (MB)    (FT/S)
PASCAGOULA       1348   61     320/  8/ 12 1011.6
WAVELAND YACHT   1342   59 72  310/ 10/ 14 1012.3
GRAND ISLE       1348   64 71  310/ 14/ 18 1013.1
SOUTHWEST PASS   1348          310/ 16/ 21   N/A
NEW CANAL        1348   63 72  280/  9/ 14 1013.6
SHELL BEACH      1342   62 73  280/ 12/ 13 1013.0

OFFSHORE STATIONS

STATION/POSITION TIME  TEMP    WIND        PRES    WAVE
                       AIR SEA DIR/SP/G            HT/PER
                 (UTC) (F)     (DEG/KT/KT) (MB)    (FT/S)
64 S DAUPHIN ISL 1350   65 74  320/ 17/ 19 1012.0    4/ 6

$$





USA.gov is the U.S. government's official web portal to all federal, state and local government web resources and services.